Location: Franzen
(48.6167°N, 15.3833°E)
Time: 07:26:39
(UTC+00:00)

A-11 Canister half - Pass Details

Date: 06 August 2021
Orbit: 1515 x 1685 km, 47.2° (Epoch: 21 September)

Event Time Altitude Azimuth Distance (km) Brightness Sun altitude
Rises 17:00:12 0° 263° (W) 4,797 13.2 13.0°
Reaches altitude 10° 17:03:15 10° 263° (W) 3,834 12.9 12.5°
Maximum altitude 17:13:06 84° 177° (S) 1,666 9.4 10.9°
Drops below altitude 10° 17:23:16 10° 92° (E) 3,943 10.6 9.2°
Sets 17:26:27 0° 91° (E) 4,937 11.0 8.7°
